contact:dominique.lefevre@mio.osupytheas.fr, maurice.libes@osupytheas.fr, didier.mallarino@osupytheas.fr
Project:EMSO http://www.emso-fr.org/EMSO-France
Depth: 2436.0 m
Title:EMSO Ligure Ouest : Data MII capteur AQUADOPP
Date,Latitude,Longitude,X_East,Y_North,Z_Up,Amplitude_X,Amplitude_Y,Amplitude_Z,Batterie,SoundSpeed,Heading,Pitch,Roll,Pressure,TIS,Speed,Direction
, degrees North, degrees East, m.s-1, m.s-1,m.s-1, 1, 1, 1, Volt, m.s-1, degree, degree, degree, dbar, degree_C, m.s-1, degree
2020-12-13T00:04:03,42.805,6.029,-0.025,-0.02,-0.038,103.0,105.0,101.0,13.4,1505.2,324.0,-0.7,1.8,2470.341,13.3,0.032,231.3
2020-12-13T00:07:03,42.805,6.029,-0.035,-0.009,-0.062,103.0,105.0,100.0,13.4,1505.3,324.6,-0.7,1.9,2470.285,13.31,0.036,255.6
2020-12-13T00:10:03,42.805,6.029,-0.047,0.004,0.014,103.0,104.0,100.0,13.4,1505.3,325.0,-0.7,1.8,2470.279,13.31,0.047,274.9
2020-12-13T00:13:03,42.805,6.029,-0.042,0.0,0.013,102.0,106.0,100.0,13.4,1505.3,326.1,-0.7,1.8,2470.327,13.32,0.042,270.0
2020-12-13T00:16:03,42.805,6.029,-0.033,-0.007,-0.027,101.0,105.0,100.0,13.4,1505.3,328.4,-0.7,1.8,2470.324,13.32,0.033,258.0
2020-12-13T00:19:03,42.805,6.029,-0.03,-0.002,0.01,104.0,103.0,100.0,13.4,1505.3,327.4,-0.7,1.8,2470.261,13.32,0.03,266.2
2020-12-13T00:22:03,42.805,6.029,-0.021,-0.033,-0.009,104.0,103.0,101.0,13.4,1505.3,327.8,-0.7,1.8,2470.254,13.32,0.039,212.5
2020-12-13T00:25:03,42.805,6.029,-0.03,-0.027,-0.005,102.0,104.0,100.0,13.4,1505.3,324.1,-0.7,1.8,2470.276,13.32,0.04,228.0
2020-12-13T00:28:03,42.805,6.029,-0.012,-0.012,-0.009,103.0,104.0,101.0,13.3,1505.3,326.1,-0.7,1.8,2470.288,13.32,0.016,225.0
2020-12-13T00:31:03,42.805,6.029,-0.044,0.003,0.005,103.0,105.0,99.0,13.3,1505.3,322.7,-0.6,1.8,2470.293,13.32,0.044,273.9
2020-12-13T00:34:03,42.805,6.029,-0.021,-0.006,-0.023,103.0,105.0,101.0,13.3,1505.3,324.3,-0.7,1.8,2470.293,13.32,0.021,254.1
2020-12-13T00:37:03,42.805,6.029,-0.034,-0.016,-0.021,103.0,103.0,100.0,13.4,1505.3,326.5,-0.7,1.9,2470.242,13.32,0.037,244.8
2020-12-13T00:40:03,42.805,6.029,-0.018,-0.018,0.021,102.0,106.0,100.0,13.4,1505.3,323.7,-0.7,1.8,2470.293,13.32,0.025,225.0
2020-12-13T00:43:03,42.805,6.029,-0.028,0.008,0.049,103.0,105.0,100.0,13.4,1505.3,327.3,-0.7,1.8,2470.247,13.32,0.029,285.9
2020-12-13T00:46:03,42.805,6.029,-0.044,-0.025,-0.018,102.0,106.0,100.0,13.3,1505.3,323.0,-0.7,1.8,2470.305,13.32,0.05,240.4
2020-12-13T00:49:03,42.805,6.029,-0.02,0.001,0.036,103.0,104.0,101.0,13.3,1505.3,326.6,-0.7,1.8,2470.25,13.32,0.02,272.9
2020-12-13T00:52:03,42.805,6.029,-0.021,-0.016,-0.046,103.0,105.0,101.0,13.4,1505.3,324.3,-0.7,1.8,2470.288,13.32,0.026,232.7
2020-12-13T00:55:03,42.805,6.029,-0.057,0.0,0.003,104.0,106.0,98.0,13.4,1505.3,327.5,-0.7,1.8,2470.293,13.32,0.057,270.0
2020-12-13T00:58:03,42.805,6.029,-0.048,0.003,-0.011,104.0,104.0,100.0,13.3,1505.3,326.9,-0.7,1.8,2470.251,13.32,0.048,273.6
2020-12-13T01:04:03,42.805,6.029,-0.012,-0.005,-0.032,104.0,105.0,102.0,13.4,1505.2,325.7,-0.7,1.8,2470.313,13.3,0.013,247.4
2020-12-13T01:07:03,42.805,6.029,-0.046,-0.026,-0.013,102.0,104.0,101.0,13.3,1505.3,323.2,-0.7,1.8,2470.285,13.31,0.052,240.5
2020-12-13T01:10:03,42.805,6.029,-0.046,-0.011,-0.032,103.0,105.0,101.0,13.3,1505.3,326.7,-0.7,1.8,2470.305,13.31,0.047,256.6
2020-12-13T01:13:03,42.805,6.029,-0.064,-0.021,-0.024,104.0,105.0,99.0,13.4,1505.3,325.1,-0.7,1.8,2470.28,13.32,0.067,251.8
2020-12-13T01:16:03,42.805,6.029,-0.044,-0.012,-0.03,102.0,105.0,101.0,13.4,1505.3,324.1,-0.7,1.8,2470.324,13.32,0.045,254.7
2020-12-13T01:19:03,42.805,6.029,-0.018,-0.022,0.0,102.0,104.0,101.0,13.3,1505.3,325.2,-0.7,1.9,2470.334,13.32,0.028,219.3
2020-12-13T01:22:03,42.805,6.029,-0.032,-0.016,0.012,104.0,106.0,101.0,13.3,1505.3,328.2,-0.7,1.8,2470.343,13.32,0.035,243.4
2020-12-13T01:25:03,42.805,6.029,-0.052,-0.036,-0.017,103.0,104.0,101.0,13.4,1505.3,325.8,-0.7,1.8,2470.295,13.32,0.063,235.3
2020-12-13T01:28:03,42.805,6.029,-0.067,-0.027,-0.044,102.0,106.0,102.0,13.3,1505.3,326.3,-0.7,1.8,2470.285,13.32,0.072,248.1
2020-12-13T01:31:03,42.805,6.029,-0.029,-0.022,0.002,102.0,104.0,101.0,13.4,1505.3,322.6,-0.7,1.8,2470.281,13.32,0.036,232.8
2020-12-13T01:34:03,42.805,6.029,-0.044,-0.028,-0.008,105.0,103.0,101.0,13.3,1505.3,323.2,-0.7,1.8,2470.315,13.32,0.052,237.5
2020-12-13T01:37:03,42.805,6.029,-0.078,-0.025,-0.037,103.0,105.0,101.0,13.4,1505.3,323.3,-0.7,1.8,2470.288,13.32,0.081,252.2
2020-12-13T01:40:03,42.805,6.029,-0.017,-0.006,-0.016,104.0,105.0,101.0,13.4,1505.3,325.0,-0.7,1.8,2470.284,13.32,0.018,250.6
2020-12-13T01:43:03,42.805,6.029,-0.035,-0.013,-0.024,103.0,104.0,100.0,13.3,1505.3,328.6,-0.7,1.8,2470.318,13.32,0.037,249.6
2020-12-13T01:46:03,42.805,6.029,-0.043,-0.014,-0.012,103.0,106.0,99.0,13.4,1505.3,326.4,-0.7,1.8,2470.323,13.32,0.045,252.0
2020-12-13T01:49:03,42.805,6.029,-0.007,-0.027,-0.013,101.0,104.0,102.0,13.4,1505.3,324.7,-0.7,1.8,2470.34,13.32,0.027,194.5
2020-12-13T01:52:03,42.805,6.029,-0.034,-0.017,-0.035,103.0,105.0,101.0,13.4,1505.3,326.8,-0.7,1.8,2470.334,13.32,0.038,243.4
2020-12-13T01:55:03,42.805,6.029,-0.039,-0.02,0.007,102.0,103.0,101.0,13.4,1505.3,322.9,-0.7,1.9,2470.328,13.32,0.043,242.9
2020-12-13T01:58:03,42.805,6.029,-0.04,-0.024,-0.029,102.0,104.0,100.0,13.4,1505.3,324.6,-0.7,1.8,2470.326,13.32,0.046,239.0
2020-12-13T02:04:03,42.805,6.029,-0.03,-0.02,-0.012,104.0,104.0,101.0,13.4,1505.2,322.6,-0.7,1.8,2470.35,13.3,0.036,236.3
2020-12-13T02:07:03,42.805,6.029,0.001,-0.002,0.024,104.0,104.0,101.0,13.4,1505.3,328.2,-0.7,1.9,2470.351,13.31,0.002,153.4
2020-12-13T02:10:03,42.805,6.029,-0.014,-0.049,-0.019,103.0,105.0,100.0,13.3,1505.3,326.5,-0.7,1.8,2470.372,13.32,0.05,195.9
2020-12-13T02:13:03,42.805,6.029,-0.046,-0.032,-0.027,103.0,104.0,100.0,13.4,1505.3,324.4,-0.7,1.9,2470.335,13.32,0.056,235.2
2020-12-13T02:16:03,42.805,6.029,-0.034,-0.01,-0.024,103.0,104.0,101.0,13.4,1505.3,327.7,-0.7,1.8,2470.4,13.32,0.035,253.6
2020-12-13T02:19:03,42.805,6.029,-0.042,-0.004,-0.017,103.0,105.0,100.0,13.4,1505.3,322.8,-0.7,1.8,2470.336,13.32,0.042,264.6
2020-12-13T02:22:03,42.805,6.029,-0.018,-0.022,-0.002,103.0,105.0,101.0,13.4,1505.3,325.9,-0.7,1.8,2470.363,13.32,0.028,219.3
2020-12-13T02:25:03,42.805,6.029,-0.038,-0.025,-0.028,102.0,106.0,99.0,13.4,1505.3,326.2,-0.7,1.8,2470.381,13.32,0.045,236.7
2020-12-13T02:28:03,42.805,6.029,-0.056,-0.026,-0.025,103.0,104.0,100.0,13.4,1505.3,327.7,-0.7,1.9,2470.362,13.32,0.061,245.1
2020-12-13T02:31:03,42.805,6.029,-0.036,-0.023,-0.044,102.0,104.0,99.0,13.4,1505.3,325.7,-0.7,1.8,2470.334,13.32,0.042,237.4
2020-12-13T02:34:03,42.805,6.029,-0.056,-0.03,-0.006,104.0,103.0,100.0,13.4,1505.3,324.6,-0.7,1.9,2470.358,13.32,0.063,241.8
2020-12-13T02:37:03,42.805,6.029,-0.04,-0.018,-0.012,103.0,103.0,100.0,13.3,1505.3,326.4,-0.7,1.8,2470.375,13.32,0.043,245.8
2020-12-13T02:40:03,42.805,6.029,-0.039,-0.04,-0.045,103.0,105.0,100.0,13.4,1505.3,323.3,-0.7,1.8,2470.366,13.32,0.055,224.3
2020-12-13T02:43:03,42.805,6.029,-0.036,-0.021,-0.028,102.0,106.0,99.0,13.4,1505.3,323.2,-0.7,1.8,2470.385,13.32,0.041,239.7
2020-12-13T02:46:03,42.805,6.029,-0.027,-0.006,0.008,104.0,104.0,99.0,13.4,1505.3,324.7,-0.7,1.8,2470.382,13.32,0.027,257.5
2020-12-13T02:49:03,42.805,6.029,-0.044,-0.007,-0.012,104.0,104.0,101.0,13.3,1505.3,323.2,-0.7,1.9,2470.389,13.32,0.044,261.0
2020-12-13T02:52:03,42.805,6.029,-0.013,-0.016,-0.021,103.0,104.0,101.0,13.3,1505.3,323.5,-0.7,1.8,2470.369,13.32,0.02,219.1
2020-12-13T02:55:03,42.805,6.029,-0.063,-0.023,-0.045,103.0,105.0,100.0,13.3,1505.3,323.5,-0.7,1.8,2470.374,13.32,0.067,249.9
2020-12-13T02:58:03,42.805,6.029,-0.035,-0.016,-0.012,103.0,105.0,100.0,13.4,1505.3,325.2,-0.7,1.8,2470.35,13.32,0.038,245.4
2020-12-13T03:04:03,42.805,6.029,-0.015,-0.029,-0.018,103.0,105.0,100.0,13.4,1505.2,323.9,-0.7,1.8,2470.432,13.3,0.032,207.4
2020-12-13T03:07:03,42.805,6.029,-0.007,-0.027,-0.042,102.0,105.0,100.0,13.4,1505.3,328.3,-0.7,1.8,2470.45,13.31,0.027,194.5
2020-12-13T03:10:03,42.805,6.029,-0.038,-0.038,-0.048,104.0,104.0,101.0,13.3,1505.3,328.0,-0.7,1.8,2470.419,13.31,0.053,225.0
2020-12-13T03:13:03,42.805,6.029,-0.035,-0.016,-0.01,104.0,105.0,100.0,13.3,1505.3,327.6,-0.7,1.8,2470.406,13.32,0.038,245.4
2020-12-13T03:16:03,42.805,6.029,-0.028,-0.024,-0.017,103.0,104.0,102.0,13.4,1505.3,325.2,-0.7,1.8,2470.389,13.32,0.036,229.4
2020-12-13T03:19:03,42.805,6.029,-0.031,-0.026,-0.001,102.0,104.0,102.0,13.4,1505.3,326.9,-0.7,1.8,2470.45,13.32,0.04,230.0
2020-12-13T03:22:03,42.805,6.029,-0.034,-0.027,0.007,102.0,104.0,101.0,13.3,1505.3,323.8,-0.7,1.8,2470.442,13.32,0.043,231.5
2020-12-13T03:25:03,42.805,6.029,-0.054,-0.039,-0.034,101.0,105.0,101.0,13.4,1505.3,324.4,-0.7,1.9,2470.447,13.32,0.066,234.2
2020-12-13T03:28:03,42.805,6.029,-0.033,0.001,0.006,103.0,105.0,100.0,13.3,1505.3,327.2,-0.7,1.8,2470.406,13.32,0.033,271.7
2020-12-13T03:31:03,42.805,6.029,-0.03,-0.023,-0.038,104.0,103.0,100.0,13.3,1505.3,326.3,-0.7,1.8,2470.392,13.32,0.037,232.5
2020-12-13T03:34:03,42.805,6.029,-0.022,-0.015,0.0,104.0,104.0,101.0,13.3,1505.3,325.6,-0.7,1.8,2470.426,13.32,0.026,235.7
2020-12-13T03:37:03,42.805,6.029,-0.021,-0.038,-0.038,103.0,105.0,100.0,13.4,1505.3,326.2,-0.7,1.8,2470.422,13.32,0.043,208.9
2020-12-13T03:40:03,42.805,6.029,-0.05,-0.042,-0.029,104.0,106.0,99.0,13.4,1505.3,327.8,-0.7,1.8,2470.416,13.32,0.065,230.0
2020-12-13T03:43:03,42.805,6.029,-0.037,-0.021,-0.007,103.0,105.0,101.0,13.3,1505.3,325.6,-0.7,1.8,2470.447,13.32,0.042,240.4
2020-12-13T03:46:03,42.805,6.029,-0.022,-0.011,-0.013,104.0,104.0,100.0,13.4,1505.3,324.0,-0.7,1.8,2470.414,13.32,0.024,243.4
2020-12-13T03:49:03,42.805,6.029,-0.027,-0.023,-0.05,103.0,104.0,100.0,13.4,1505.3,325.2,-0.7,1.8,2470.407,13.32,0.035,229.6
2020-12-13T03:52:03,42.805,6.029,-0.048,-0.034,-0.003,103.0,104.0,100.0,13.4,1505.3,325.9,-0.7,1.8,2470.481,13.32,0.058,234.7
2020-12-13T03:55:03,42.805,6.029,-0.014,-0.018,-0.002,102.0,105.0,100.0,13.4,1505.3,324.7,-0.7,1.8,2470.484,13.32,0.022,217.9
2020-12-13T03:58:03,42.805,6.029,-0.03,-0.021,0.013,104.0,104.0,101.0,13.4,1505.3,326.7,-0.7,1.8,2470.434,13.32,0.036,235.0
2020-12-13T04:04:03,42.805,6.029,-0.049,-0.041,-0.006,101.0,104.0,102.0,13.4,1505.2,327.2,-0.8,1.8,2470.476,13.3,0.063,230.1
2020-12-13T04:07:03,42.805,6.029,-0.028,-0.003,-0.02,104.0,103.0,101.0,13.4,1505.3,326.4,-0.7,1.9,2470.47,13.31,0.028,263.9
2020-12-13T04:10:03,42.805,6.029,-0.054,-0.013,-0.029,103.0,104.0,100.0,13.3,1505.3,328.4,-0.7,1.8,2470.477,13.31,0.055,256.5
2020-12-13T04:13:03,42.805,6.029,-0.035,-0.029,-0.02,104.0,103.0,100.0,13.3,1505.3,323.2,-0.7,1.8,2470.44,13.32,0.045,230.4
2020-12-13T04:16:03,42.805,6.029,-0.011,-0.019,-0.003,103.0,104.0,100.0,13.4,1505.3,325.1,-0.7,1.8,2470.484,13.32,0.021,210.1
2020-12-13T04:19:03,42.805,6.029,-0.056,-0.005,-0.033,103.0,104.0,100.0,13.4,1505.3,327.3,-0.7,1.9,2470.447,13.32,0.056,264.9
2020-12-13T04:22:03,42.805,6.029,-0.043,-0.036,-0.034,102.0,104.0,101.0,13.3,1505.3,323.3,-0.7,1.8,2470.476,13.32,0.056,230.1
2020-12-13T04:25:03,42.805,6.029,-0.034,-0.008,-0.002,104.0,103.0,101.0,13.4,1505.3,326.5,-0.7,1.8,2470.463,13.32,0.034,256.8
2020-12-13T04:28:03,42.805,6.029,-0.04,-0.011,-0.017,103.0,106.0,100.0,13.4,1505.3,324.8,-0.7,1.8,2470.523,13.32,0.041,254.6
2020-12-13T04:31:03,42.805,6.029,-0.034,-0.021,-0.037,104.0,104.0,101.0,13.4,1505.3,326.7,-0.7,1.8,2470.45,13.32,0.039,238.3
2020-12-13T04:34:03,42.805,6.029,-0.057,-0.012,-0.007,104.0,104.0,101.0,13.3,1505.3,326.1,-0.7,1.8,2470.473,13.32,0.058,258.1
2020-12-13T04:37:03,42.805,6.029,-0.045,-0.019,-0.026,102.0,106.0,102.0,13.3,1505.3,325.7,-0.7,1.8,2470.494,13.32,0.048,247.1
2020-12-13T04:40:03,42.805,6.029,-0.034,-0.018,-0.021,102.0,105.0,100.0,13.4,1505.3,324.3,-0.7,1.9,2470.489,13.32,0.038,242.1
2020-12-13T04:43:03,42.805,6.029,-0.027,-0.015,-0.053,103.0,104.0,101.0,13.4,1505.3,326.3,-0.7,1.8,2470.457,13.32,0.03,240.9
2020-12-13T04:46:03,42.805,6.029,-0.021,-0.022,0.0,103.0,104.0,100.0,13.3,1505.3,327.1,-0.7,1.8,2470.456,13.32,0.03,223.7
2020-12-13T04:49:03,42.805,6.029,-0.033,-0.035,-0.01,104.0,105.0,100.0,13.3,1505.3,322.8,-0.7,1.8,2470.483,13.32,0.048,223.3
2020-12-13T04:52:03,42.805,6.029,-0.03,-0.039,-0.011,103.0,104.0,99.0,13.4,1505.3,326.5,-0.7,1.8,2470.482,13.32,0.049,217.6
2020-12-13T04:55:03,42.805,6.029,-0.077,-0.039,-0.016,103.0,104.0,100.0,13.4,1505.3,325.8,-0.7,1.8,2470.476,13.32,0.086,243.1
2020-12-13T04:58:03,42.805,6.029,-0.052,-0.01,-0.029,103.0,103.0,100.0,13.4,1505.3,326.6,-0.7,1.8,2470.444,13.32,0.052,259.1
2020-12-13T05:04:03,42.805,6.029,-0.046,-0.033,-0.038,103.0,104.0,102.0,13.4,1505.2,326.6,-0.7,1.9,2470.565,13.3,0.056,234.3
2020-12-13T05:07:03,42.805,6.029,-0.041,-0.033,-0.009,104.0,103.0,100.0,13.4,1505.3,326.8,-0.7,1.8,2470.522,13.31,0.052,231.2
2020-12-13T05:10:03,42.805,6.029,-0.071,-0.026,-0.027,104.0,105.0,99.0,13.3,1505.3,322.6,-0.7,1.8,2470.534,13.31,0.075,249.9
2020-12-13T05:13:03,42.805,6.029,-0.018,-0.02,0.021,103.0,104.0,101.0,13.3,1505.3,325.6,-0.7,1.8,2470.482,13.31,0.026,222.0
2020-12-13T05:16:03,42.805,6.029,-0.037,-0.036,-0.018,103.0,104.0,101.0,13.4,1505.3,324.5,-0.7,1.8,2470.513,13.32,0.051,225.8
2020-12-13T05:19:03,42.805,6.029,-0.052,-0.023,-0.025,103.0,105.0,99.0,13.4,1505.3,325.6,-0.7,1.8,2470.478,13.32,0.056,246.1
2020-12-13T05:22:03,42.805,6.029,-0.028,-0.013,0.009,103.0,105.0,101.0,13.4,1505.3,327.1,-0.7,1.8,2470.545,13.32,0.03,245.1
2020-12-13T05:25:03,42.805,6.029,-0.039,0.015,0.007,104.0,105.0,100.0,13.4,1505.3,323.6,-0.7,1.8,2470.491,13.32,0.041,291.0
2020-12-13T05:28:03,42.805,6.029,-0.017,-0.029,0.012,104.0,104.0,101.0,13.3,1505.3,323.0,-0.7,1.8,2470.499,13.32,0.033,210.4
2020-12-13T05:31:03,42.805,6.029,-0.037,-0.031,-0.02,103.0,104.0,100.0,13.4,1505.3,325.4,-0.7,1.8,2470.485,13.32,0.048,230.0
2020-12-13T05:34:03,42.805,6.029,-0.034,-0.022,0.011,103.0,104.0,100.0,13.4,1505.3,324.9,-0.7,1.8,2470.534,13.32,0.04,237.1
2020-12-13T05:37:03,42.805,6.029,-0.014,-0.048,-0.028,104.0,103.0,100.0,13.3,1505.3,324.9,-0.7,1.8,2470.473,13.32,0.05,196.3
2020-12-13T05:40:03,42.805,6.029,-0.043,-0.027,-0.003,104.0,104.0,99.0,13.4,1505.3,324.4,-0.7,1.8,2470.489,13.32,0.05,237.9
2020-12-13T05:43:03,42.805,6.029,-0.039,-0.043,-0.019,104.0,105.0,100.0,13.4,1505.3,324.5,-0.7,1.8,2470.508,13.32,0.058,222.2
2020-12-13T05:46:03,42.805,6.029,-0.023,-0.014,0.005,102.0,103.0,100.0,13.4,1505.3,324.4,-0.7,1.8,2470.47,13.32,0.026,238.7
2020-12-13T05:49:03,42.805,6.029,-0.029,-0.018,-0.01,103.0,104.0,100.0,13.4,1505.3,326.5,-0.7,1.8,2470.515,13.32,0.034,238.2
2020-12-13T05:52:03,42.805,6.029,-0.041,-0.021,0.014,102.0,104.0,101.0,13.4,1505.3,322.8,-0.7,1.8,2470.481,13.32,0.046,242.9
2020-12-13T05:55:03,42.805,6.029,-0.034,-0.024,-0.01,104.0,104.0,101.0,13.4,1505.3,323.3,-0.7,1.8,2470.493,13.32,0.041,234.8
2020-12-13T05:58:03,42.805,6.029,-0.027,-0.029,-0.016,103.0,104.0,100.0,13.3,1505.3,322.7,-0.7,1.8,2470.491,13.32,0.039,223.0
2020-12-13T06:04:03,42.805,6.029,-0.051,-0.018,0.004,103.0,105.0,100.0,13.4,1505.2,323.7,-0.7,1.8,2470.532,13.3,0.054,250.6
2020-12-13T06:07:03,42.805,6.029,-0.07,-0.022,-0.028,102.0,103.0,100.0,13.4,1505.3,324.1,-0.7,1.9,2470.512,13.31,0.073,252.6
2020-12-13T06:10:03,42.805,6.029,-0.06,-0.032,-0.026,101.0,104.0,100.0,13.4,1505.3,325.7,-0.7,1.8,2470.519,13.31,0.067,241.9
2020-12-13T06:13:03,42.805,6.029,-0.049,-0.008,-0.023,103.0,103.0,99.0,13.4,1505.3,327.9,-0.7,1.8,2470.502,13.32,0.049,260.7
2020-12-13T06:16:03,42.805,6.029,-0.061,-0.032,0.029,103.0,104.0,100.0,13.3,1505.3,327.4,-0.7,1.8,2470.526,13.32,0.068,242.3
2020-12-13T06:19:03,42.805,6.029,-0.057,-0.054,-0.042,103.0,104.0,99.0,13.3,1505.3,323.0,-0.7,1.8,2470.528,13.32,0.078,226.5
2020-12-13T06:22:03,42.805,6.029,-0.055,-0.043,-0.007,102.0,103.0,101.0,13.4,1505.3,326.1,-0.7,1.8,2470.533,13.32,0.069,232.0
2020-12-13T06:25:03,42.805,6.029,-0.018,-0.019,-0.004,103.0,104.0,101.0,13.4,1505.3,324.1,-0.7,1.8,2470.507,13.32,0.026,223.5
2020-12-13T06:28:03,42.805,6.029,-0.061,-0.03,-0.037,104.0,104.0,99.0,13.4,1505.3,328.4,-0.7,1.8,2470.504,13.32,0.067,243.8
2020-12-13T06:31:03,42.805,6.029,-0.043,-0.027,0.001,104.0,104.0,98.0,13.4,1505.3,323.6,-0.7,1.8,2470.503,13.32,0.05,237.9
2020-12-13T06:34:03,42.805,6.029,-0.035,-0.015,-0.015,103.0,105.0,100.0,13.4,1505.3,324.1,-0.7,1.8,2470.518,13.32,0.038,246.8
2020-12-13T06:37:03,42.805,6.029,-0.051,-0.036,-0.025,102.0,104.0,101.0,13.4,1505.3,325.5,-0.7,1.8,2470.532,13.32,0.062,234.8
2020-12-13T06:40:03,42.805,6.029,-0.071,-0.044,-0.029,103.0,103.0,101.0,13.4,1505.3,326.1,-0.7,1.8,2470.501,13.32,0.083,238.2
2020-12-13T06:43:03,42.805,6.029,-0.045,-0.044,-0.006,103.0,104.0,100.0,13.3,1505.3,326.4,-0.7,1.8,2470.515,13.32,0.062,225.6
2020-12-13T06:46:03,42.805,6.029,-0.044,-0.021,0.025,104.0,105.0,101.0,13.4,1505.3,326.7,-0.7,1.8,2470.528,13.32,0.048,244.5
2020-12-13T06:49:03,42.805,6.029,-0.042,-0.035,-0.002,104.0,104.0,101.0,13.3,1505.3,324.5,-0.7,1.8,2470.516,13.32,0.054,230.2
2020-12-13T06:52:03,42.805,6.029,-0.055,-0.034,-0.023,104.0,104.0,100.0,13.4,1505.3,323.1,-0.7,1.9,2470.523,13.32,0.064,238.3
2020-12-13T06:55:03,42.805,6.029,-0.042,-0.042,0.0,104.0,104.0,101.0,13.4,1505.3,326.5,-0.7,1.8,2470.499,13.32,0.059,225.0
2020-12-13T07:04:03,42.805,6.029,-0.066,-0.062,-0.038,102.0,104.0,101.0,13.4,1505.2,323.0,-0.7,1.8,2470.58,13.29,0.09,226.8
2020-12-13T07:07:03,42.805,6.029,-0.075,-0.046,-0.008,102.0,104.0,102.0,13.3,1505.2,323.1,-0.7,1.9,2470.569,13.3,0.087,238.5
2020-12-13T07:10:03,42.805,6.029,-0.053,-0.032,0.0,103.0,103.0,100.0,13.3,1505.3,323.3,-0.7,1.8,2470.543,13.31,0.061,238.9
2020-12-13T07:13:03,42.805,6.029,-0.077,-0.033,-0.019,103.0,104.0,101.0,13.4,1505.3,324.2,-0.7,1.8,2470.536,13.31,0.083,246.8
2020-12-13T07:16:03,42.805,6.029,-0.063,-0.036,-0.032,103.0,103.0,101.0,13.4,1505.3,324.5,-0.7,1.8,2470.513,13.31,0.072,240.3
2020-12-13T07:19:03,42.805,6.029,-0.023,-0.019,-0.02,103.0,105.0,100.0,13.4,1505.3,323.9,-0.7,1.9,2470.558,13.32,0.029,230.4
2020-12-13T07:22:03,42.805,6.029,-0.067,-0.036,-0.013,104.0,105.0,100.0,13.4,1505.3,327.5,-0.7,1.8,2470.517,13.32,0.076,241.7
2020-12-13T07:25:03,42.805,6.029,-0.059,-0.012,-0.046,105.0,105.0,100.0,13.4,1505.3,326.4,-0.8,1.8,2470.556,13.32,0.06,258.5
2020-12-13T07:28:03,42.805,6.029,-0.063,-0.05,-0.035,104.0,104.0,101.0,13.4,1505.3,326.6,-0.7,1.8,2470.508,13.32,0.08,231.6
2020-12-13T07:31:03,42.805,6.029,-0.078,-0.022,-0.007,104.0,105.0,99.0,13.4,1505.3,326.7,-0.7,1.8,2470.556,13.32,0.081,254.3
2020-12-13T07:34:03,42.805,6.029,-0.062,-0.033,0.005,104.0,103.0,102.0,13.4,1505.3,326.5,-0.7,1.8,2470.515,13.32,0.07,242.0
2020-12-13T07:37:03,42.805,6.029,-0.057,-0.045,-0.005,103.0,105.0,101.0,13.4,1505.3,325.7,-0.7,1.8,2470.501,13.32,0.072,231.7
2020-12-13T07:40:03,42.805,6.029,-0.058,-0.03,-0.026,103.0,105.0,100.0,13.4,1505.3,326.3,-0.7,1.8,2470.525,13.32,0.065,242.6
2020-12-13T07:43:03,42.805,6.029,-0.068,-0.037,-0.029,104.0,105.0,99.0,13.4,1505.3,325.2,-0.7,1.8,2470.5,13.32,0.077,241.4
2020-12-13T07:49:03,42.805,6.029,-0.055,-0.05,-0.022,104.0,105.0,100.0,13.4,1505.2,326.2,-0.7,1.8,2470.549,13.3,0.074,227.7
2020-12-13T07:52:03,42.805,6.029,-0.06,-0.041,-0.009,104.0,105.0,101.0,13.4,1505.3,326.0,-0.7,1.8,2470.549,13.31,0.072,235.7
2020-12-13T07:55:03,42.805,6.029,-0.065,-0.011,-0.022,105.0,104.0,101.0,13.4,1505.3,327.1,-0.7,1.9,2470.515,13.31,0.065,260.4
2020-12-13T07:58:03,42.805,6.029,-0.042,-0.036,-0.006,104.0,104.0,101.0,13.4,1505.3,324.5,-0.7,1.8,2470.528,13.31,0.055,229.4
2020-12-13T08:04:03,42.805,6.029,-0.062,-0.03,-0.014,103.0,104.0,101.0,13.4,1505.2,326.8,-0.7,1.8,2470.512,13.3,0.068,244.2
2020-12-13T08:07:03,42.805,6.029,-0.043,-0.031,-0.022,104.0,104.0,101.0,13.4,1505.3,324.9,-0.7,1.8,2470.494,13.31,0.053,234.2
2020-12-13T08:10:03,42.805,6.029,-0.073,-0.035,0.004,105.0,103.0,101.0,13.3,1505.3,327.1,-0.7,1.8,2470.535,13.31,0.08,244.4
2020-12-13T08:13:03,42.805,6.029,-0.048,-0.035,0.002,105.0,104.0,101.0,13.4,1505.3,322.6,-0.7,1.8,2470.474,13.31,0.059,233.9
2020-12-13T08:16:03,42.805,6.029,-0.075,-0.018,-0.031,104.0,106.0,100.0,13.3,1505.3,323.3,-0.7,1.8,2470.506,13.32,0.077,256.5
2020-12-13T08:19:03,42.805,6.029,-0.046,-0.035,-0.016,105.0,104.0,101.0,13.4,1505.3,324.5,-0.7,1.8,2470.494,13.32,0.057,232.7
2020-12-13T08:22:03,42.805,6.029,-0.06,-0.029,0.009,103.0,105.0,101.0,13.3,1505.3,325.9,-0.7,1.9,2470.527,13.32,0.066,244.2
2020-12-13T08:25:03,42.805,6.029,-0.064,-0.04,-0.035,103.0,105.0,102.0,13.4,1505.3,326.9,-0.7,1.8,2470.497,13.32,0.075,238.0
2020-12-13T08:28:03,42.805,6.029,-0.04,-0.036,0.019,104.0,105.0,101.0,13.4,1505.3,326.6,-0.7,1.8,2470.485,13.32,0.053,228.0
2020-12-13T08:31:03,42.805,6.029,-0.058,-0.045,-0.031,104.0,104.0,101.0,13.4,1505.3,325.1,-0.7,1.8,2470.501,13.32,0.073,232.2
2020-12-13T08:34:03,42.805,6.029,-0.067,-0.017,-0.04,104.0,105.0,101.0,13.4,1505.3,326.8,-0.7,1.8,2470.455,13.32,0.069,255.8
2020-12-13T08:37:03,42.805,6.029,-0.038,-0.022,0.0,105.0,104.0,100.0,13.3,1505.3,325.5,-0.7,1.8,2470.459,13.32,0.043,239.9
2020-12-13T08:40:03,42.805,6.029,-0.062,-0.035,-0.015,104.0,104.0,102.0,13.4,1505.3,325.4,-0.7,1.8,2470.466,13.32,0.071,240.6
2020-12-13T08:43:03,42.805,6.029,-0.06,-0.024,-0.019,104.0,105.0,100.0,13.4,1505.3,325.9,-0.7,1.8,2470.485,13.32,0.064,248.2
2020-12-13T08:46:03,42.805,6.029,-0.066,-0.037,-0.021,103.0,106.0,101.0,13.4,1505.3,323.7,-0.7,1.8,2470.443,13.32,0.075,240.7
2020-12-13T08:49:03,42.805,6.029,-0.043,-0.023,0.004,106.0,105.0,102.0,13.3,1505.3,325.5,-0.7,1.8,2470.463,13.32,0.048,241.9
2020-12-13T08:52:03,42.805,6.029,-0.077,-0.034,-0.036,104.0,105.0,101.0,13.3,1505.3,324.7,-0.7,1.8,2470.465,13.32,0.084,246.2
2020-12-13T08:55:03,42.805,6.029,-0.049,-0.029,0.019,104.0,105.0,100.0,13.4,1505.3,326.3,-0.7,1.8,2470.482,13.32,0.056,239.4
2020-12-13T08:58:03,42.805,6.029,-0.053,-0.037,-0.034,104.0,106.0,101.0,13.3,1505.3,323.6,-0.7,1.8,2470.496,13.32,0.064,235.1
2020-12-13T09:04:03,42.805,6.029,-0.081,-0.032,0.009,105.0,104.0,101.0,13.4,1505.2,327.8,-0.8,1.8,2470.518,13.3,0.087,248.4
2020-12-13T09:07:03,42.805,6.029,-0.058,-0.033,0.011,103.0,105.0,100.0,13.4,1505.3,324.3,-0.7,1.8,2470.487,13.31,0.066,240.4
2020-12-13T09:10:03,42.805,6.029,-0.077,-0.018,-0.023,104.0,105.0,100.0,13.4,1505.3,327.0,-0.7,1.8,2470.492,13.31,0.079,256.8
2020-12-13T09:13:03,42.805,6.029,-0.085,-0.022,-0.04,104.0,106.0,100.0,13.3,1505.3,327.6,-0.7,1.8,2470.491,13.31,0.087,255.5
2020-12-13T09:16:03,42.805,6.029,-0.069,-0.027,-0.008,102.0,105.0,102.0,13.4,1505.3,322.6,-0.7,1.8,2470.481,13.32,0.074,248.6
2020-12-13T09:19:03,42.805,6.029,-0.055,-0.03,-0.036,103.0,105.0,101.0,13.4,1505.3,325.9,-0.7,1.8,2470.496,13.32,0.062,241.4
2020-12-13T09:22:03,42.805,6.029,-0.092,-0.014,-0.017,104.0,105.0,101.0,13.4,1505.3,328.3,-0.7,1.8,2470.477,13.32,0.093,261.3
2020-12-13T09:25:03,42.805,6.029,-0.067,-0.032,-0.005,104.0,105.0,101.0,13.4,1505.3,324.9,-0.7,1.8,2470.491,13.32,0.074,244.5
2020-12-13T09:28:03,42.805,6.029,-0.072,-0.037,-0.021,104.0,105.0,101.0,13.3,1505.3,328.2,-0.7,1.8,2470.441,13.32,0.08,242.8
2020-12-13T09:31:03,42.805,6.029,-0.06,-0.056,-0.007,104.0,104.0,101.0,13.4,1505.3,323.0,-0.7,1.8,2470.444,13.32,0.082,227.0
2020-12-13T09:34:03,42.805,6.029,-0.058,-0.033,0.013,104.0,105.0,101.0,13.4,1505.3,324.6,-0.7,1.8,2470.455,13.32,0.066,240.4
2020-12-13T09:37:03,42.805,6.029,-0.059,-0.016,0.007,104.0,103.0,100.0,13.3,1505.3,327.7,-0.7,1.9,2470.416,13.32,0.061,254.8
2020-12-13T09:40:03,42.805,6.029,-0.074,-0.029,-0.021,104.0,104.0,100.0,13.3,1505.3,325.5,-0.7,1.8,2470.424,13.32,0.079,248.6
2020-12-13T09:43:03,42.805,6.029,-0.066,-0.02,0.0,105.0,104.0,101.0,13.4,1505.3,327.0,-0.7,1.8,2470.43,13.32,0.068,253.1
2020-12-13T09:46:03,42.805,6.029,-0.066,-0.011,0.01,104.0,105.0,101.0,13.3,1505.3,327.9,-0.7,1.8,2470.436,13.32,0.066,260.5
2020-12-13T09:49:03,42.805,6.029,-0.043,-0.034,-0.005,103.0,104.0,102.0,13.4,1505.3,323.2,-0.7,1.8,2470.424,13.32,0.054,231.7
2020-12-13T09:52:03,42.805,6.029,-0.085,-0.005,-0.014,104.0,104.0,101.0,13.4,1505.3,326.7,-0.7,1.8,2470.414,13.32,0.085,266.6
2020-12-13T09:55:03,42.805,6.029,-0.057,-0.025,-0.008,103.0,105.0,101.0,13.3,1505.3,327.3,-0.7,1.8,2470.405,13.32,0.062,246.3
2020-12-13T09:58:03,42.805,6.029,-0.065,-0.004,0.01,103.0,104.0,101.0,13.3,1505.3,324.8,-0.7,1.9,2470.461,13.32,0.065,266.5